Weather in Puerto del Carmen

Spain     28°55′32″N   13°39′54″W
temp.,
°C
wind,
m/s
gust,
m/s
humid.,
%
clouds,
%
prec.,
mm/h
press.,
hPa
HPBL,
m
7 march, sun
sun700:00+16n912741 0.4 1022955
03:00+16n1013750 0.1 1022943
06:00+17n9117136 0.2 10211244
09:00+17n10117029 0.2 10231156
12:00+17n10116816 0.2 10231072
15:00+17n1010694 0.0 1022941
18:00+16n10117116 0.1 10201091
21:00+16n9107179 0.1 10221202
8 march, mon
mon800:00+16n8107281 0.1 10221152
03:00+16n896976 0.1 10201140
06:00+16n8107088 0.2 10191141
09:00+16nne897196 0.2 10201116
12:00+17n9106373 0.2 10211285
15:00+17n996357 0.1 10191244
18:00+16n10116938 0.1 10181157
21:00+16n10116915 0.1 10201170
9 march, tue
tue900:00+15n10127124 0.3 10201099
03:00+15n10137213 0.1 10191044
06:00+15n11137031 0.3 10181075
09:00+15n11136540 0.2 10191441
12:00+16nne12136235 0.3 10201345
15:00+16n12136935 0.1 10191335
18:00+15n13146746 0.1 10181227
21:00+15nne12147246 0.1 10201204
10 march, wed
wed1000:00+15nne11147053 0.1 10201155
03:00+15nne11147251 0.0 10201036
06:00+15nne11147443 0.0 1019897
09:00+16nne1114712 0.0 10211050
12:00+17nne1112662 0.0 1022989
15:00+17nne1012670 0.0 1021954
18:00+16nne1012710 0.0 1020868
21:00+16nne1013740 0.0 1022860
11 march, thu
thu1100:00+15nne912790 0.0 1022713
03:00+16nne912780 0.0 1021602
06:00+15ne811850 0.0 1021491
09:00+17ne9117711 0.0 1022703
12:00+19ne89656 0.0 1023668
15:00+20nne87650 0.0 1020602
18:00+18nne88770 0.0 1020421
21:00+17ne78830 0.0 1021319